XBJCS MPTO-MHRO

Flight info

Callsign XBJCS
Flight time N/A
Altitude 18000
Route EGETA3B EGETA V11 TBG/N0486F430 UM419 AROVI/N0481F450 UM419 ANSON/N0486F430 UM206 BTO
Aircraft C750/M-SBDE3FGHRWXY/S

Departure

Time 2026-04-28 16:50
Airport Tocumen International Airport (MPTO)

Arrival

Time N/A
Airport Juan Manuel Gálvez International Airport (MHRO)
Time Latitude Longitude Altitude Speed Heading
2026-04-28 16:38 9.07780 -79.38093 27 ft 0 kts 211°
2026-04-28 16:47 9.07780 -79.38099 27 ft 1 kts 271°
2026-04-28 16:47 9.07801 -79.38114 28 ft 7 kts 335°
2026-04-28 16:47 9.07860 -79.38151 29 ft 12 kts 315°
2026-04-28 16:47 9.07830 -79.38229 31 ft 17 kts 215°
2026-04-28 16:48 9.07706 -79.38297 31 ft 24 kts 210°
2026-04-28 16:48 9.07598 -79.38359 31 ft 15 kts 209°
2026-04-28 16:48 9.07523 -79.38403 30 ft 15 kts 224°
2026-04-28 16:48 9.07425 -79.38482 32 ft 21 kts 204°
2026-04-28 16:49 9.07348 -79.38566 34 ft 11 kts 290°
2026-04-28 16:49 9.07375 -79.38625 43 ft 7 kts 296°
2026-04-28 16:49 9.07428 -79.38637 45 ft 12 kts 22°
2026-04-28 16:49 9.07629 -79.38524 45 ft 80 kts 30°
2026-04-28 16:50 9.08383 -79.38073 44 ft 159 kts 31°
2026-04-28 16:50 9.09317 -79.37517 808 ft 144 kts 31°
2026-04-28 16:50 9.10148 -79.36990 1633 ft 148 kts 33°
2026-04-28 16:50 9.11134 -79.36364 1661 ft 186 kts 33°
2026-04-28 16:51 9.11967 -79.35249 1380 ft 211 kts 72°
2026-04-28 16:51 9.12003 -79.33783 1326 ft 212 kts 102°
2026-04-28 16:51 9.11262 -79.32510 1320 ft 217 kts 135°
2026-04-28 16:51 9.09866 -79.31828 1330 ft 243 kts 170°
2026-04-28 16:52 9.08135 -79.32154 1367 ft 260 kts 206°
2026-04-28 16:52 9.06701 -79.33263 1900 ft 262 kts 222°
2026-04-28 16:52 9.05364 -79.34524 2644 ft 269 kts 222°
2026-04-28 16:52 9.03906 -79.35756 3410 ft 276 kts 218°
2026-04-28 16:53 9.02377 -79.36935 4455 ft 277 kts 217°
2026-04-28 16:53 9.00840 -79.38154 5386 ft 283 kts 219°
2026-04-28 16:53 8.99298 -79.39424 6285 ft 288 kts 219°
2026-04-28 16:53 8.97733 -79.40722 7241 ft 292 kts 219°
2026-04-28 16:54 8.96138 -79.42025 8268 ft 296 kts 218°
2026-04-28 16:54 8.94538 -79.43322 9289 ft 299 kts 218°
2026-04-28 16:54 8.92900 -79.44655 10205 ft 305 kts 218°
2026-04-28 16:54 8.91182 -79.46062 10548 ft 330 kts 218°
2026-04-28 16:55 8.89320 -79.47592 10660 ft 357 kts 218°
2026-04-28 16:55 8.87350 -79.49205 11238 ft 366 kts 218°
2026-04-28 16:55 8.85365 -79.50820 12099 ft 367 kts 218°
2026-04-28 16:55 8.83406 -79.52432 12823 ft 370 kts 220°
2026-04-28 16:56 8.81812 -79.54491 13396 ft 377 kts 243°
2026-04-28 16:56 8.81092 -79.57034 14112 ft 380 kts 263°
2026-04-28 16:56 8.81320 -79.59710 14755 ft 385 kts 285°
2026-04-28 16:56 8.82453 -79.62167 15412 ft 388 kts 301°
2026-04-28 16:57 8.83935 -79.64461 16067 ft 391 kts 304°
2026-04-28 16:57 8.85480 -79.66756 16697 ft 396 kts 304°
2026-04-28 16:57 8.86945 -79.69090 17347 ft 400 kts 302°
2026-04-28 16:57 8.88393 -79.71513 18001 ft 404 kts 301°
2026-04-28 16:58 8.89887 -79.73947 18674 ft 408 kts 302°
2026-04-28 16:58 8.91446 -79.76379 19346 ft 412 kts 303°
2026-04-28 16:58 8.93001 -79.78787 20018 ft 416 kts 303°
2026-04-28 16:58 8.94573 -79.81284 20681 ft 420 kts 302°
2026-04-28 16:59 8.96134 -79.83806 21353 ft 424 kts 302°
2026-04-28 16:59 8.97715 -79.86345 21979 ft 429 kts 302°
2026-04-28 16:59 8.99330 -79.88897 22626 ft 432 kts 302°
2026-04-28 16:59 9.00969 -79.91481 23231 ft 437 kts 302°
2026-04-28 17:00 9.02589 -79.94056 23848 ft 440 kts 301°
2026-04-28 17:00 9.04225 -79.96691 24427 ft 444 kts 301°
2026-04-28 17:00 9.05864 -79.99359 25029 ft 447 kts 300°
2026-04-28 17:00 9.07503 -80.02055 25624 ft 450 kts 300°
2026-04-28 17:01 9.09125 -80.04752 26210 ft 454 kts 300°
2026-04-28 17:01 9.10759 -80.07500 26799 ft 457 kts 299°
2026-04-28 17:01 9.12393 -80.10284 27367 ft 459 kts 298°
2026-04-28 17:01 9.14014 -80.13090 27940 ft 462 kts 298°
2026-04-28 17:02 9.15624 -80.15921 28465 ft 465 kts 297°
2026-04-28 17:02 9.16685 -80.17814 28811 ft 467 kts 297°
2026-04-28 17:02 9.18794 -80.21638 29486 ft 471 kts 296°
2026-04-28 17:02 9.20374 -80.24561 29973 ft 473 kts 295°
2026-04-28 17:03 9.23496 -80.30482 30879 ft 478 kts 295°
2026-04-28 17:03 9.25028 -80.33462 31550 ft 475 kts 294°
2026-04-28 17:03 9.26527 -80.36428 32265 ft 470 kts 294°
2026-04-28 17:04 9.29403 -80.42279 33543 ft 463 kts 292°
2026-04-28 17:04 9.30800 -80.45214 34150 ft 460 kts 292°
2026-04-28 17:05 9.33499 -80.51066 35302 ft 457 kts 291°
2026-04-28 17:05 9.34803 -80.53993 35837 ft 455 kts 290°
2026-04-28 17:05 9.36079 -80.56928 36371 ft 454 kts 290°
2026-04-28 17:06 9.38536 -80.62775 37384 ft 451 kts 289°
2026-04-28 17:06 9.40083 -80.65595 37238 ft 471 kts 301°
2026-04-28 17:06 9.44340 -80.70886 37865 ft 473 kts 306°
2026-04-28 17:07 9.46402 -80.73306 38730 ft 436 kts 306°
2026-04-28 17:07 9.48332 -80.75557 38903 ft 411 kts 306°
2026-04-28 17:07 9.50161 -80.77696 38906 ft 391 kts 306°
2026-04-28 17:07 9.51889 -80.79731 38917 ft 380 kts 305°
2026-04-28 17:08 9.55351 -80.83894 38937 ft 388 kts 304°
2026-04-28 17:08 9.58764 -80.88122 38945 ft 389 kts 304°
2026-04-28 17:09 9.62138 -80.92419 38949 ft 388 kts 303°
2026-04-28 17:09 9.65432 -80.96733 38944 ft 388 kts 302°
2026-04-28 17:10 9.68652 -81.01074 38944 ft 387 kts 301°
2026-04-28 17:10 9.71826 -81.05500 38944 ft 386 kts 301°
2026-04-28 17:11 9.74907 -81.09943 38945 ft 386 kts 300°
2026-04-28 17:11 9.77933 -81.14460 38942 ft 386 kts 299°
2026-04-28 17:12 9.80862 -81.18985 38944 ft 385 kts 298°
2026-04-28 17:12 9.83734 -81.23585 38945 ft 385 kts 297°
2026-04-28 17:13 9.86508 -81.28195 38949 ft 384 kts 296°
2026-04-28 17:13 9.89218 -81.32869 38948 ft 384 kts 295°
2026-04-28 17:14 9.91850 -81.37585 38947 ft 383 kts 294°
2026-04-28 17:14 9.94400 -81.42339 38947 ft 383 kts 294°
2026-04-28 17:15 9.96853 -81.47096 38949 ft 382 kts 292°
2026-04-28 17:15 9.99234 -81.51901 38931 ft 382 kts 292°
2026-04-28 17:16 10.01543 -81.56757 38929 ft 380 kts 291°
2026-04-28 17:16 10.03764 -81.61632 38931 ft 380 kts 290°
2026-04-28 17:17 10.05893 -81.66516 38934 ft 380 kts 289°
2026-04-28 17:17 10.07950 -81.71467 38932 ft 380 kts 288°
2026-04-28 17:18 10.09925 -81.76448 38933 ft 380 kts 287°
2026-04-28 17:18 10.11806 -81.81429 38941 ft 379 kts 286°
2026-04-28 17:19 10.13603 -81.86432 38944 ft 379 kts 285°
2026-04-28 17:19 10.15328 -81.91495 38940 ft 378 kts 284°
2026-04-28 17:20 10.16689 -81.95695 38938 ft 378 kts 284°
2026-04-28 17:20 10.18505 -82.01629 38939 ft 377 kts 283°
2026-04-28 17:21 10.19970 -82.06742 38942 ft 377 kts 282°
2026-04-28 17:22 10.22000 -82.14431 38939 ft 376 kts 281°
2026-04-28 17:22 10.23252 -82.19604 38943 ft 376 kts 279°
2026-04-28 17:23 10.24956 -82.27342 38970 ft 375 kts 278°
2026-04-28 17:23 10.25989 -82.32532 38969 ft 374 kts 277°
2026-04-28 17:24 10.26927 -82.37707 38968 ft 374 kts 276°
2026-04-28 17:24 10.27782 -82.42922 38968 ft 373 kts 275°
2026-04-28 17:25 10.28894 -82.50725 38970 ft 373 kts 274°
2026-04-28 17:26 10.29888 -82.55908 38358 ft 390 kts 291°
2026-04-28 17:26 10.31175 -82.58345 38075 ft 382 kts 294°
2026-04-28 17:26 10.32464 -82.60636 38188 ft 368 kts 299°
2026-04-28 17:26 10.34347 -82.62581 36830 ft 402 kts 316°
2026-04-28 17:27 10.36643 -82.64263 35605 ft 419 kts 322°
2026-04-28 17:27 10.39026 -82.65839 35732 ft 393 kts 322°
2026-04-28 17:27 10.41262 -82.67300 35881 ft 374 kts 322°
2026-04-28 17:27 10.43443 -82.68732 36010 ft 375 kts 321°
2026-04-28 17:28 10.45654 -82.70201 36130 ft 382 kts 322°